McAlester, OK

8:32 AM CST on November 13, 2019 (GMT -0600)
McAlester Regional

Weather History for KMLC - August, 2019

Change the Weather History Date:

Tuesday, August 27, 2019

  Actual Average Record
Temperature  
Mean Temperature 80 °F -  
Max Temperature 87 °F 92 °F 107 °F (1963)
Min Temperature 73 °F 68 °F 55 °F (2010)
Cooling Degree Days 15    
Growing Degree Days 30 (Base 50)    
Moisture  
Dew Point 71 °F    
Average Humidity 80    
Maximum Humidity 93    
Minimum Humidity 59    
Precipitation  
Precipitation 0.07 in - - ()
Sea Level Pressure  
Sea Level Pressure 29.93 in    
Wind  
Wind Speed 6 mph (NNE)    
Max Wind Speed 13 mph    
Max Gust Speed 18 mph    
Visibility 10 miles    
Events Rain , Thunderstorm    
Averages and records for this station are not official NWS values.
T = Trace of Precipitation, MM = Missing Value Source: NWS Daily Summary

Daily Weather History Graph

Daily Weather History Graph

Search for Another Location

Airport or City:

Astronomy

Aug. 27, 2019 Rise Set
Actual Time 6:52 AM CDT 7:56 PM CDT
Civil Twilight 6:26 AM CDT 8:22 PM CDT
Nautical Twilight 5:55 AM CDT 8:53 PM CDT
Astronomical Twilight 5:23 AM CDT 9:25 PM CDT
Moon 3:26 AM CDT (8/27) 6:10 PM CDT (8/27)
Length of Visible Light 13h 56m
Length of Day
13h 04m
Waning Crescent, 11% of the Moon is Illuminated
Aug 27
Waning Crescent
Aug 30
New
Sep 5
First Quarter
Sep 13
Full
Sep 21
Last Quarter

Hourly Weather History & Observations

Time (CDT) Temp. Heat Index Dew Point Humidity Pressure Visibility Wind Dir Wind Speed Gust Speed Precip Events Conditions
12:53 AM 84.9 °F 91.4 °F 73.0 °F 67% 29.79 in 10.0 mi South 4.6 mph - N/A   Clear
1:37 AM 84.0 °F 90.2 °F 73.0 °F 69% 29.85 in 10.0 mi North - - N/A Thunderstorm Partly Cloudy
1:53 AM 84.0 °F 90.2 °F 73.0 °F 69% 29.83 in 10.0 mi North - - N/A   Partly Cloudy
2:53 AM 79.0 °F - 75.0 °F 88% 29.81 in 4.0 mi ESE 11.5 mph 18.4 mph 0.06 in Rain , Thunderstorm Light Thunderstorms and Rain
3:32 AM 75.9 °F - 72.0 °F 87% 29.82 in 10.0 mi SE 9.2 mph 17.3 mph 0.00 in Thunderstorm Partly Cloudy
3:53 AM 75.0 °F - 71.1 °F 87% 29.84 in 10.0 mi West 9.2 mph 17.3 mph 0.00 in Thunderstorm Partly Cloudy
4:00 AM 75.0 °F - 70.0 °F 84% 29.86 in 10.0 mi Calm Calm - N/A   Partly Cloudy
4:53 AM 73.9 °F - 71.1 °F 91% 29.85 in 10.0 mi Variable 4.6 mph - 0.00 in   Partly Cloudy
5:53 AM 73.0 °F - 70.0 °F 90% 29.86 in 10.0 mi Calm Calm - N/A   Partly Cloudy
6:45 AM 73.0 °F - 71.1 °F 93% 29.95 in 10.0 mi North 6.9 mph - N/A   Mostly Cloudy
6:53 AM 73.0 °F - 70.0 °F 90% 29.91 in 10.0 mi East 3.5 mph - 0.00 in Rain Light Rain
7:06 AM 73.0 °F - 70.0 °F 90% 29.94 in 10.0 mi East 6.9 mph - 0.00 in Rain Light Rain
7:53 AM 73.0 °F - 71.1 °F 93% 29.97 in 10.0 mi Calm Calm - 0.01 in   Scattered Clouds
8:02 AM 73.0 °F - 71.1 °F 93% 30.00 in 10.0 mi Calm Calm - N/A   Mostly Cloudy
8:15 AM 73.0 °F - 71.1 °F 93% 29.99 in 10.0 mi Calm Calm - N/A   Mostly Cloudy
8:53 AM 73.0 °F - 71.1 °F 93% 29.93 in 10.0 mi Variable 3.5 mph - N/A   Clear
9:53 AM 75.0 °F - 71.1 °F 87% 29.95 in 10.0 mi Variable 5.8 mph - N/A   Clear
10:53 AM 77.0 °F - 71.1 °F 82% 29.98 in 10.0 mi South 5.8 mph - N/A   Partly Cloudy
11:53 AM 79.0 °F - 70.0 °F 74% 29.98 in 10.0 mi Variable 3.5 mph - N/A   Clear
12:53 PM 82.0 °F 86.3 °F 71.1 °F 69% 29.96 in 10.0 mi WSW 6.9 mph - N/A   Clear
1:53 PM 84.9 °F 90.1 °F 71.1 °F 63% 29.97 in 10.0 mi West 3.5 mph - N/A   Scattered Clouds
2:53 PM 87.1 °F 92.8 °F 71.1 °F 59% 29.95 in 10.0 mi NNW 10.4 mph - N/A   Partly Cloudy
3:53 PM 84.9 °F 91.4 °F 73.0 °F 67% 29.95 in 10.0 mi NNW 12.7 mph - N/A   Partly Cloudy
4:53 PM 82.9 °F 88.0 °F 72.0 °F 69% 29.95 in 10.0 mi North 11.5 mph - N/A   Mostly Cloudy
5:29 PM 81.0 °F 85.2 °F 72.0 °F 74% 29.99 in 10.0 mi North 11.5 mph - N/A   Overcast
5:53 PM 81.0 °F 84.9 °F 71.1 °F 72% 29.98 in 10.0 mi NE 4.6 mph - 0.00 in   Overcast
6:53 PM 81.0 °F 84.9 °F 71.1 °F 72% 29.97 in 10.0 mi NNE 6.9 mph - N/A   Mostly Cloudy
7:53 PM 80.1 °F 83.6 °F 71.1 °F 74% 29.98 in 10.0 mi North 5.8 mph - N/A   Overcast
8:53 PM 78.1 °F - 71.1 °F 79% 29.99 in 10.0 mi North 6.9 mph - N/A   Clear
9:53 PM 75.9 °F - 71.1 °F 85% 30.01 in 10.0 mi North 6.9 mph - N/A   Mostly Cloudy
10:53 PM 77.0 °F - 68.0 °F 74% 30.02 in 10.0 mi NNE 8.1 mph - N/A   Clear
11:53 PM 75.0 °F - 69.1 °F 82% 30.02 in 10.0 mi NNE 5.8 mph - N/A   Clear